sat.trackr.live / text

‹ back to catalog

STARLINK-3587

NORAD 51892 · 2022-022AS

PAYLOAD ACTIVE UNKNOWN

§ Identity

Operator
Country
US
Launch date
2022-03-03
Launch site
AFETR
Launch vehicle
Mass (kg)
RCS (m²)

Purposes: comms

External: N2YO · Heavens-Above · Gunter

§ Orbital elements

Epoch: 2026-09-20T01:37:01.269984Z

Period
93.85 min
Inclination
53.1593°
Eccentricity
0.0001292
Mean motion
15.34387687 rev/d
Perigee alt
461.9 km
Apogee alt
463.6 km
Semi-major
6,840.9 km
B*
2.0409e-5
RAAN
190.0875°
Arg perigee
90.9373°
Mean anomaly
269.1777°
Rev number
25,281

§ Raw data

STARLINK-35871 51892U 22022AS  26263.06737581  .00000313  00000+0  20409-4 0  99942 51892  53.1593 190.0875 0001292  90.9373 269.1777 15.34387687252817

JSON: /api/v1/satellites/51892 · /tle

For live sub-satellite position, see the globe view (requires WebGL).

§ Visibility from observer

Set your observer location to see the next 7 days of passes ≥ 10°. The values pass through the URL so the page stays shareable.

No JS? Fill the form by hand. The geolocation button needs JavaScript.